Location: Knowlton
(51.2333°N, 1.2667°E)
Time: 04:33:46
(UTC+00:00)

Cosmos 2208 Rocket - Pass Details

Date: 18 April 2021
Orbit: 754 x 806 km, 74.0° (Epoch: 06 May)

Event Time Altitude Azimuth Distance (km) Brightness Sun altitude
Rises 22:55:53 0° 335° (NNW) 3,265 8.5 -26.3°
Reaches altitude 10° 22:58:16 10° 336° (NNW) 2,342 7.5 -26.4°
Maximum altitude 23:03:37 86° 66° (ENE) 796 3.9 -26.6°
Enters shadow 23:03:42 85° 100° (E) 797 3.9 -26.6°
